User: anonymous   Login
Location: Unspecified
(0.0000°N, 0.0000°E)
Time: 10:52:35
(UTC+01:00)
Language:

H-2A R/B - Orbit

View from above orbital plane
View from above orbital plane
View from above satellite
View from above satellite

Ground track
Ground track

The orbit data is extracted from the following two-line orbital elements,

1 26899U 01038B   17018.60685569  .00000575  00000-0  20188-3 0  9997
2 26899  27.8659 126.2750 7125141  88.8132 344.4123  2.47438668132800
Epoch (UTC): 18 January 2017 14:33:52
Eccentricity: 0.7125141
inclination: 27.8659°
perigee height: 260 km
apogee height: 33163 km
right ascension of ascending node: 126.2750°
argument of perigee: 88.8132°
revolutions per day: 2.47438668
mean anomaly at epoch: 344.4123°
orbit number at epoch: 13280

The dashed part of the orbit path shows where the satellite is in the earth's shadow,  

DLR